Pedro Gomes

Olheiro - Grêmio
25 Nov 2027
Quinta-feira
Processo

Personalidade

Adaptabilidade (1) Ambição (9) Controvérsia (5) Lealdade (9) Pressão (1) Profissionalismo (1) Espírito Esportivo (12) Temperamento (1)

Perfil

Estilo de Treinamento Democrático
Licença Nacional A
Determinação 15
Gestão de Pessoas 13
Motivação 13
Disciplina 10
Satisfação no Trabalho
100%
Fadiga
0%
Função Olheiro
Salário 116.2K p/s
Contrato 14.03.2029

Desempenho

Comportamento Bom
Eficácia do Treinamento
49%
Desenvolvimento do Jogador
45%
Prevenção de Lesões
60%
Implementação Tática
35%

Eventos Recentes

Participou de uma reunião de recrutamento 14d atrás
Participou de uma reunião de recrutamento 21d atrás
Participou de uma reunião de recrutamento 28d atrás
Participou de uma reunião de recrutamento 35d atrás
Aniversário 35d atrás
Participou de uma reunião de recrutamento 42d atrás
Participou de uma reunião de recrutamento 49d atrás
Participou de uma reunião de recrutamento 56d atrás

Monitorando agora

95
Jogador Clube Status Habilidade Confiança Observado Última observação Último voto
Gonçalo Oliveira Benfica Ativo 117 / 136 40% 1 20.07.2027 -
Leandro Martins Benfica Ativo 83 / 87 40% 1 20.07.2027 -
Dango Ouattara Brentford Ativo 158 / 163 40% 1 30.05.2027 -
Hector Ramirez Newcastle United Ativo 162 / 143 40% 2 29.05.2027 -
Matt O'Riley Brighton Ativo 141 / 141 40% 2 29.05.2027 -
Guille Rosas Gijón Ativo 155 / 135 40% 2 29.05.2027 -
Borja Sainz Fiorentina Ativo 136 / 150 40% 3 28.05.2027 -
Mats Wieffer Brighton Ativo 149 / 135 40% 2 27.05.2027 -
Jacob Ramsey Newcastle United Ativo 147 / 156 40% 3 25.05.2027 -
Francisco Conceição Juventus Ativo 170 / 173 40% 3 25.05.2027 -
Jan Paul van Hecke Tottenham Ativo 174 / 171 40% 1 24.05.2027 -
Curtis Jones Inter Ativo 142 / 171 40% 1 24.05.2027 -
Jack McGlynn Stoke City Ativo 129 / 144 40% 2 23.05.2027 -
Florentino Luís Ipswich Town Ativo 157 / 129 40% 2 23.05.2027 -
Jack Rudoni Coventry City Ativo 128 / 135 40% 2 23.05.2027 -
Boubacar Kamara Aston Villa Ativo 165 / 148 40% 1 23.05.2027 -
Kiernan Dewsbury-Hall Everton Ativo 158 / 165 40% 1 21.05.2027 -
Giacomo Raspadori Atalanta Ativo 143 / 158 40% 3 20.05.2027 -
Callum Hudson-Odoi Nottingham Forest Ativo 162 / 153 40% 2 20.05.2027 -
Ethan Galbraith Swansea City Ativo 148 / 146 40% 1 19.05.2027 -
Jake O'Brien Everton Ativo 163 / 132 40% 1 19.05.2027 -
Othmane Maamma Watford Ativo 135 / 125 40% 1 18.05.2027 -
Alexis Saelemaekers AC Milan Ativo 150 / 142 40% 1 17.05.2027 -
Morgan Whittaker Middlesbrough Ativo 134 / 144 40% 4 14.05.2027 -
Nicolas Jackson Aston Villa Ativo 140 / 145 40% 3 14.05.2027 -
Georginio Rutter Brighton Ativo 155 / 148 40% 1 14.05.2027 -
Welington Southampton Ativo 138 / 135 40% 3 12.05.2027 -
Yehor Yarmoliuk Brentford Ativo 142 / 146 40% 1 11.05.2027 -
Carlos Vicente Birmingham Ativo 149 / 137 40% 2 10.05.2027 -
Scott Twine Bristol City Ativo 127 / 132 40% 2 07.05.2027 -
Adam Wharton Crystal Palace Ativo 145 / 143 40% 1 01.05.2027 -
Xavi Simons Tottenham Ativo 166 / 168 40% 1 30.04.2027 -
Derensili Sanches Fernandes Huddersfield Town Ativo 116 / 140 40% 2 29.04.2027 -
Carlos Alcaraz Everton Ativo 138 / 159 40% 1 28.04.2027 -
Mario Dorgeles Braga Ativo 136 / 130 40% 3 25.04.2027 -
Tom Fellows Southampton Ativo 122 / 138 40% 4 25.04.2027 -
Rodrigo Zalazar Sporting CP Ativo 154 / 163 40% 1 24.04.2027 -
William Gomes Porto Ativo 160 / 157 40% 2 22.04.2027 -
Bright Arrey-Mbi Braga Ativo 144 / 134 40% 2 21.04.2027 -
Nico González Newcastle United Ativo 161 / 159 40% 2 21.04.2027 -
Amadou Onana Aston Villa Ativo 168 / 143 40% 1 18.04.2027 -
Fredrik Aursnes Benfica Ativo 154 / 138 40% 1 17.04.2027 -
Léo Scienza Southampton Ativo 138 / 132 40% 1 17.04.2027 -
Finn Azaz Southampton Ativo 129 / 123 40% 4 15.04.2027 -
Iván Fresneda Sporting CP Ativo 143 / 137 40% 5 13.04.2027 -
Bosun Lawal Stoke City Ativo 125 / 121 40% 1 13.04.2027 -
Lewis Ferguson Bologna Ativo 152 / 129 40% 1 12.04.2027 -
Pau Víctor AVS Ativo 136 / 134 40% 4 11.04.2027 -
Milan van Ewijk Mansfield Town Ativo 144 / 123 40% 1 09.04.2027 -
Noah Sadiki Sunderland Ativo 135 / 155 40% 1 09.04.2027 -
Isaiah Jones Luton Town Ativo 113 / 137 40% 1 05.04.2027 -
Luke McNally Bristol City Ativo 133 / 117 40% 1 04.04.2027 -
Jesús Orozco Chiquete Cruz Azul Ativo 137 / 133 40% 3 01.04.2027 -
Soungoutou Magassa West Ham United Ativo 143 / 134 40% 1 01.04.2027 -
Sergi Altimira Sporting CP Ativo 146 / 136 40% 1 31.03.2027 -
Víctor Gómez Braga Ativo 143 / 136 40% 3 29.03.2027 -
Valery Académico de Viseu Ativo 120 / 139 40% 1 29.03.2027 -
Zeno Debast Sporting CP Ativo 153 / 152 40% 2 28.03.2027 -
Paulo Moreira Farense Ativo 134 / 119 40% 2 28.03.2027 -
Erick Sánchez OGC Nice Ativo 157 / 155 40% 3 27.03.2027 -
Gabri Martínez Braga Ativo 136 / 119 40% 2 26.03.2027 -
Imrân Louza Watford Ativo 133 / 140 40% 1 26.03.2027 -
Jacques Ekomié Wrexham Ativo 116 / 136 40% 1 26.03.2027 -
Ozziel Herrera Tigres Ativo 122 / 136 40% 4 24.03.2027 -
Alberto Costa Porto Ativo 160 / 153 40% 6 23.03.2027 -
Tyrell Malacia Monaco Ativo 133 / 140 40% 1 21.03.2027 -
Nicolás Fernández Mercau Shakhtar Ativo 133 / 149 40% 3 20.03.2027 -
Eduardo Quaresma Sporting CP Ativo 142 / 147 40% 1 19.03.2027 -
Alan Varela Porto Ativo 142 / 155 40% 3 17.03.2027 -
Félix Lemaréchal Club Brugge Ativo 147 / 150 40% 2 17.03.2027 -
Rodrigo Pinheiro Famalicao Ativo 113 / 126 40% 2 16.03.2027 -
Francisco Moura Lusitânia Lourosa Ativo 130 / 154 40% 3 14.03.2027 -
Marcelo Allende Mamelodi Sundowns Ativo 147 / 140 40% 1 12.03.2027 -
Kwadwo Baah Watford Ativo 112 / 136 40% 1 12.03.2027 -
Naïs Djouahra Arouca Ativo 127 / 113 40% 2 08.03.2027 -
Santi García Gil Vicente Ativo 136 / 116 40% 2 08.03.2027 -
Max Bird Birmingham Ativo 118 / 124 40% 1 08.03.2027 -
Gonçalo Inácio Sporting CP Ativo 132 / 145 40% 2 03.03.2027 -
Sikou Niakaté Braga Ativo 122 / 143 40% 1 03.03.2027 -
Gustaf Lagerbielke Braga Ativo 138 / 124 40% 1 02.03.2027 -
Brian Rodríguez Club America Ativo 115 / 131 40% 1 28.02.2027 -
Luís Guilherme Sporting CP Ativo 121 / 118 40% 2 27.02.2027 -
Figueiredo Alverca Ativo 118 / 141 40% 1 23.02.2027 -
Rafik Guitane Estoril Praia Ativo 145 / 148 40% 1 21.02.2027 -
Ousmane Diomande Nottingham Forest Ativo 141 / 138 40% 1 21.02.2027 -
João Simões Sporting CP Ativo 127 / 131 40% 3 20.02.2027 -
Bamba Dieng Crvena Zvezda Ativo 123 / 144 40% 1 18.02.2027 -
Ilay Camara Anderlecht Ativo 140 / 145 40% 1 14.02.2027 -
Mathias De Amorim Famalicao Ativo 130 / 129 40% 1 10.02.2027 -
Dara O'Shea Ipswich Town Ativo 141 / 125 40% 1 07.02.2027 -
Diego Lainez Tigres Ativo 119 / 134 40% 1 03.02.2027 -
Heorhii Sudakov Benfica Ativo 148 / 156 40% 1 03.02.2027 -
Dinis Pinto Moreirense Ativo 119 / 120 40% 1 30.11.2026 -
Ricardo Horta Braga Ativo 148 / 136 40% 1 03.08.2026 -
Dodi Lukébakio Benfica Ativo 128 / 144 40% 1 03.08.2026 -